GSAT0220 (GALILEO 24)

Last updated on Fri Sep 04 2026 00:02:48 GMT+0000 (Coordinated Universal Time)

1 43567U 18060D 26246.15560568 -.00000082 00000+0 00000+0 0 9995 2 43567 57.1408 339.6819 0003318 261.8710 98.1343 1.70475712 50503
UTC large
Height (km)
Speed (km/s)
/
Latitude / Longitude
Inclination (degrees)
Orbital Period (minutes)
Azimuth
Elevation
Range (km)
Doppler Factor

Next 0 passes for location: London (51.5072 / 0.1276)

No passes found over London.
GSAT0220 (GALILEO 24)